Regional Weather Roundup
Issued by NWS Austin/San Antonio, TX

Current Version | Previous Version | Text Only | Print | Product List | Glossary On
Versions: 1 2 3 4 5 6 7 8 9 10 11 12 13 14 15 16 17 18 19 20 21 22 23 24 25 26 27 28 29 30 31 32 33 34 35 36 37 38 39 40 41 42 43 44 45 46 47 48 49 50
000
ASUS44 KEWX 031813
RWREWX
SOUTH TEXAS REGIONAL WEATHER ROUNDUP
NATIONAL WEATHER SERVICE AUSTIN/SAN ANTONIO TX
100 PM CDT MON OCT 03 2022

NOTE: "FAIR" INDICATED FEW OR NO CLOUDS BELOW 12,000 FEET WITH NO
SIGNIFICANT WEATHER AND/OR OBSTRUCTIONS TO VISIBILITY.

* - THESE STATIONS ARE NOT NWS OR FAA STATIONS...AND ARE NOT SUBJECT
    TO NWS AND FAA QUALITY CONTROL.

TXZ171-172-183>190-031900-
TEXAS HILL COUNTRY AND EDWARDS PLATEAU

CITY           SKY/WX    TMP DP  RH WIND       PRES   REMARKS
JUNCTION       SUNNY     82  43  25 E9        30.19F
6HR MIN TEMP:  49; 6HR MAX TEMP:  83;

*LLANO         SUNNY     82  37  20 E9G15     30.18F
BURNET         SUNNY     81  40  23 SE6       30.20F
6HR MIN TEMP:  57; 6HR MAX TEMP:  82;

*HORSESHOE BAY SUNNY     82  38  20 E7        30.18F
6HR MIN TEMP:  49; 6HR MAX TEMP:  83;

*LAGO VISTA      N/A     86  41  20 NE3       30.19F
6HR MIN TEMP:  55; 6HR MAX TEMP:  86;

*KERRVILLE     MOSUNNY   79  40  24 N7        30.18F
6HR MIN TEMP:  51; 6HR MAX TEMP:  81;

*FREDERICKSBRG SUNNY     79  37  21 E6        30.19F
6HR MIN TEMP:  48; 6HR MAX TEMP:  79;

*ROCKSPRINGS   SUNNY     75  48  38 SE9G16    30.25F
*BOERNE        PTSUNNY   81  41  24 E6        30.18F
HONDO          MOSUNNY   81  48  31 VRB3      30.16F
6HR MIN TEMP:  58; 6HR MAX TEMP:  84;

*UVALDE        MOSUNNY   79  51  37 S5        30.18F
6HR MIN TEMP:  59; 6HR MAX TEMP:  79;

DEL RIO        MOSUNNY   79  59  50 S13G20    30.15F
6HR MIN TEMP:  60; 6HR MAX TEMP:  80;

*LAUGHLIN AFB  MOSUNNY   79  57  46 S8        30.13F
6HR MIN TEMP:  57; 6HR MAX TEMP:  79;

*SPOFFORD      MOSUNNY   80  55  41 N5        30.14F
6HR MIN TEMP:  60; 6HR MAX TEMP:  81;

CARRIZO SPRGS  PTSUNNY   79  57  47 E3        30.15F
*FAITH RANCH   SUNNY     81  55  41 VRB7      30.16F
$$

TXZ173-191>194-202-209-217>225-228-031900-
CENTRAL AND SOUTH CENTRAL TEXAS

CITY           SKY/WX    TMP DP  RH WIND       PRES   REMARKS
GEORGETOWN     SUNNY     81  42  25 VRB3      30.19F
6HR MIN TEMP:  50; 6HR MAX TEMP:  83;

*TAYLOR        SUNNY     83  43  24 E8        30.16F
6HR MIN TEMP:  48; 6HR MAX TEMP:  84;

AUSTIN/BERGSTM MOSUNNY   83  44  25 N6        30.14F
6HR MIN TEMP:  52; 6HR MAX TEMP:  84;

AUSTIN/MABRY   SUNNY     85  43  22 CALM      30.17F
6HR MIN TEMP:  58; 6HR MAX TEMP:  85;

*PFLUGERVILLE  SUNNY     82  39  21 E7        30.15F
SAN MARCOS     MOSUNNY   84  43  23 S6        30.16F
6HR MIN TEMP:  59; 6HR MAX TEMP:  93;

NEW BRAUNFELS  PTSUNNY   85  43  22 VRB5      30.14F
6HR MIN TEMP:  65; 6HR MAX TEMP:  85;

*RANDOLPH AFB  PTSUNNY   85  39  19 SW7       30.12F
6HR MIN TEMP:  61; 6HR MAX TEMP:  85;

*SEGUIN        PTSUNNY   84  41  22 SE6       30.12F
6HR MIN TEMP:  58; 6HR MAX TEMP:  84;

SAN ANTONIO    PTSUNNY   82  43  25 SE5       30.16F
6HR MIN TEMP:  62; 6HR MAX TEMP:  82;

STINSON FIELD  PTSUNNY   83  45  26 S3        30.13F
6HR MIN TEMP:  63; 6HR MAX TEMP:  86;

*KELLY FIELD   MOSUNNY   83  46  26 CALM      30.13F
6HR MIN TEMP:  62; 6HR MAX TEMP:  85;

*PLEASANTON    PTSUNNY   84  47  27 SE5       30.16F
6HR MIN TEMP:  60; 6HR MAX TEMP:  84;

*KENEDY        PTSUNNY   85  46  25 E7        30.15F
6HR MIN TEMP:  58; 6HR MAX TEMP:  85;

*LA GRANGE     NOT AVBL
*GIDDINGS      SUNNY     83  42  23 SE3       30.16F
6HR MIN TEMP:  56; 6HR MAX TEMP:  83;

*GONZALES      SUNNY     86  45  24 CALM      30.14F
6HR MIN TEMP:  58; 6HR MAX TEMP:  86;

$$

TXZ163>164-176>182-195>201-210>213-226-227-235-031900-
SOUTHEAST TEXAS

CITY           SKY/WX    TMP DP  RH WIND       PRES   REMARKS
COLLEGE STN    SUNNY     83  47  28 CALM      30.15F
6HR MIN TEMP:  61; 6HR MAX TEMP:  84;

*BRYAN         SUNNY     82  46  28 CALM      30.17F
6HR MIN TEMP:  53; 6HR MAX TEMP:  83;

*CALDWELL      SUNNY     82  46  27 SE3       30.16F
6HR MIN TEMP:  54; 6HR MAX TEMP:  83;

*CROCKETT      SUNNY     84  39  20 CALM      30.14F
*BRENHAM       SUNNY     84  45  25 CALM      30.18S
6HR MIN TEMP:  55; 6HR MAX TEMP:  84;

HUNTSVILLE     SUNNY     85  46  25 N7        30.14F
6HR MIN TEMP:  53; 6HR MAX TEMP:  85;

CONROE         SUNNY     84  49  29 MISG      30.14F
6HR MIN TEMP:  50; 6HR MAX TEMP:  84;

HOUSTON BUSH   PTSUNNY   84  48  28 E7        30.12F
6HR MIN TEMP:  60; 6HR MAX TEMP:  84;

HOUSTON HOBBY  PTSUNNY   84  45  25 CALM      30.12F
6HR MIN TEMP:  63; 6HR MAX TEMP:  85;

*HOUSTON SW AP NOT AVBL
PEARLAND       MOSUNNY   82  47  29 NW3       30.13F
6HR MIN TEMP:  58; 6HR MAX TEMP:  84;

HOUSTON HOOKS  MOSUNNY   84  49  29 CALM      30.13F
6HR MIN TEMP:  54; 6HR MAX TEMP:  84;

ELLINGTON FLD  SUNNY     82  46  28 NW6       30.12F
SUGAR LAND     MOSUNNY   85  49  28 NE6       30.12F
6HR MIN TEMP:  55; 6HR MAX TEMP:  86;

*HOUSTON EXEC  MOSUNNY   82  46  28 E7        30.14F
*CLEVELAND MUN NOT AVBL
*WHARTON       MOSUNNY   83  47  28 E6        30.14F
6HR MIN TEMP:  56; 6HR MAX TEMP:  84;

*COLUMBUS      FAIR      83  47  28 E5        30.15F
6HR MIN TEMP:  52; 6HR MAX TEMP:  83;

*EAGLE LAKE    SUNNY     84  46  25 E6        30.14F
6HR MIN TEMP:  58; 6HR MAX TEMP:  85;

$$

TXZ214>216-236>238-031900-
THE UPPER TEXAS COAST

CITY           SKY/WX    TMP DP  RH WIND       PRES   REMARKS
*ORANGE        SUNNY     86  45  24 CALM      30.13F
6HR MIN TEMP:  57; 6HR MAX TEMP:  86;

PORT ARTHUR    SUNNY     84  51  31 E7        30.11F
6HR MIN TEMP:  56; 6HR MAX TEMP:  84;

GALVESTON      MOSUNNY   79  61  53 N10       30.13F
6HR MIN TEMP:  67; 6HR MAX TEMP:  81;

ANGLETON       MOSUNNY   83  48  29 N7        30.12F
6HR MIN TEMP:  55; 6HR MAX TEMP:  84;

*BAY CITY      MOSUNNY   82  53  36 N7        30.12F
PALACIOS       MOSUNNY   84  53  34 MISG      30.12F
6HR MIN TEMP:  58; 6HR MAX TEMP:  84;

$$

TXZ229>234-239>247-031900-
TEXAS COASTAL BEND AND RIO GRANDE PLAINS

CITY           SKY/WX    TMP DP  RH WIND       PRES   REMARKS
VICTORIA       MOSUNNY   86  47  25 VRB3      30.13F
6HR MIN TEMP:  58; 6HR MAX TEMP:  88;

*BEEVILLE      MOSUNNY   83  44  25 E6        30.12F
6HR MIN TEMP:  62; 6HR MAX TEMP:  84;

ROCKPORT       PTSUNNY   83  62  49 E8        30.12F
6HR MIN TEMP:  68; 6HR MAX TEMP:  86;

*PORT ARANSAS  MOSUNNY  N/A N/A N/A NE9       30.14F
*PORT LAVACA   MOSUNNY   85  48  27 E7        30.13F
6HR MIN TEMP:  63; 6HR MAX TEMP:  85;

*INGLESIDE     PTSUNNY   85  57  38 N7        30.11F
CORPUS CHRISTI PTSUNNY   88  58  36 NE7       30.12F
6HR MIN TEMP:  68; 6HR MAX TEMP:  88;

CORPUS NAS     PTSUNNY   85  60  42 NE13      30.12F
*ROBSTOWN        N/A     83  56  40 MISG      30.12F
ALICE          PTSUNNY   82  58  43 E6        30.12F
6HR MIN TEMP:  62; 6HR MAX TEMP:  84;

KINGSVILLE NAS PTSUNNY   83  60  45 NE7       30.12F
6HR MIN TEMP:  66; 6HR MAX TEMP:  83;

COTULLA        PTSUNNY   84  51  31 NE5       30.14F
6HR MIN TEMP:  66; 6HR MAX TEMP:  84;

LAREDO         PTSUNNY   80  62  54 VRB5      30.13F
6HR MIN TEMP:  70; 6HR MAX TEMP:  81;

$$

TXZ248>255-031900-
DEEP SOUTH TEXAS

CITY           SKY/WX    TMP DP  RH WIND       PRES   REMARKS
BROWNSVIL


USA.gov is the U.S. government's official web portal to all federal, state and local government web resources and services.